Location: Caracas
(10.5033°N, 66.8422°W)
Time: 02:12:18
(UTC-04:00)

Vanguard 2 Rocket - Visible Passes

Search period start: 26 May 2018 00:00
Search period end: 05 June 2018 00:00
Orbit: 553 x 3327 km, 32.9° (Epoch: 25 May)

Date Brightness Start Highest point End Pass type
(mag) Time Alt. Az. Time Alt. Az. Time Alt. Az.
26 May 9.1 02:59:57 42° SSE 02:59:57 42° SSE 03:09:55 10° SE visible
26 May 9.5 05:05:52 17° WSW 05:12:51 25° SSW 05:26:17 10° SSE visible
27 May 10.1 02:04:54 17° SE 02:04:54 17° SE 02:07:41 10° SE visible
27 May 9.2 04:10:47 32° SSW 04:11:08 32° SSW 04:24:56 10° SSE visible
28 May 9.5 03:15:37 29° SSE 03:15:37 29° SSE 03:23:22 10° SE visible
28 May 9.9 05:21:30 11° SW 05:28:41 16° SSW 05:38:00 10° S visible
29 May 10.3 02:20:19 13° SE 02:20:19 13° SE 02:21:40 10° SE visible
29 May 9.7 04:26:12 20° SSW 04:26:37 20° SSW 04:37:11 10° SSE visible
30 May 9.9 03:30:46 20° S 03:30:46 20° S 03:36:08 10° SSE visible
31 May 10.0 04:41:06 12° SSW 04:42:33 12° SSW 04:47:52 10° S visible
01 Jun 10.2 03:45:29 13° S 03:45:29 13° S 03:47:50 10° S visible
